Mount Ida, AR

8:18 PM CDT on October 16, 2017 (GMT -0500)
Mount Ida

Weather History for KMWT - May, 2013

Change the Weather History Date:

Monday, May 13, 2013

  Actual Average (KHOT) Record (KHOT)
Temperature  
Mean Temperature 63 °F -  
Max Temperature 81 °F 81 °F 91 °F (1988)
Min Temperature 45 °F 57 °F 41 °F (1997)
Degree Days  
Heating Degree Days 2    
Growing Degree Days 13 (Base 50)    
Moisture  
Dew Point 46 °F    
Average Humidity 60    
Maximum Humidity 97    
Minimum Humidity 25    
Precipitation  
Precipitation 0.00 in - - ()
Sea Level Pressure  
Sea Level Pressure 30.15 in    
Wind  
Wind Speed 1 mph (SW)    
Max Wind Speed 9 mph    
Max Gust Speed 22 mph    
Visibility 10 miles    
Events      
Averages and records for this station are not official NWS values.
T = Trace of Precipitation, MM = Missing Value Source: NWS Daily Summary

Daily Weather History Graph

Daily Weather History Graph

Search for Another Location

Airport or City:

Trip Planner

Search our weather history database for the weather conditions in past years. The results will help you decide how hot, cold, wet, or windy it might be!

Date:

Astronomy

May. 13, 2013 Rise Set
Actual Time 6:13 AM CDT 8:08 PM CDT
Civil Twilight 5:45 AM CDT 8:36 PM CDT
Nautical Twilight 5:11 AM CDT 9:10 PM CDT
Astronomical Twilight 4:35 AM CDT 9:46 PM CDT
Moon 9:00 AM CDT (5/13) 11:18 PM CDT (5/13)
Length of Visible Light 14h 51m
Length of Day
13h 55m
Waxing Crescent, 12% of the Moon is Illuminated
May 13
Waxing Crescent
May 17
First Quarter
May 24
Full
May 31
Last Quarter
Jun 8
New

Hourly Weather History & Observations

Time (CDT) Temp. Dew Point Humidity Pressure Visibility Wind Dir Wind Speed Gust Speed Precip Events Conditions
12:53 AM 48.9 °F 46.9 °F 93% 30.18 in 10.0 mi Calm Calm - N/A   Partly Cloudy
1:53 AM 48.0 °F 46.0 °F 93% 30.17 in 10.0 mi Calm Calm - N/A   Scattered Clouds
2:53 AM 46.9 °F 46.0 °F 97% 30.17 in 10.0 mi Calm Calm - N/A   Clear
3:53 AM 46.0 °F 45.0 °F 96% 30.16 in 10.0 mi Calm Calm - N/A   Clear
4:53 AM 45.0 °F 44.1 °F 97% 30.16 in 10.0 mi Calm Calm - N/A   Clear
5:53 AM 45.0 °F 43.0 °F 93% 30.17 in 9.0 mi Calm Calm - N/A   Clear
6:53 AM 46.9 °F 46.0 °F 97% 30.19 in 10.0 mi Calm Calm - N/A   Overcast
7:53 AM 50.0 °F 46.9 °F 89% 30.21 in 10.0 mi Calm Calm - N/A   Mostly Cloudy
8:53 AM 55.9 °F 51.1 °F 84% 30.23 in 10.0 mi Calm Calm - N/A   Partly Cloudy
9:53 AM 66.0 °F 51.1 °F 59% 30.21 in 10.0 mi Calm Calm - N/A   Clear
10:37 AM 71.6 °F 46.4 °F 41% 30.21 in 10.0 mi Variable 3.5 mph - N/A   Partly Cloudy
10:53 AM 72.0 °F 44.1 °F 37% 30.20 in 10.0 mi Variable 5.8 mph - N/A   Clear
11:53 AM 73.9 °F 44.1 °F 34% 30.19 in 10.0 mi Variable 4.6 mph - N/A   Clear
12:53 PM 75.9 °F 42.1 °F 30% 30.17 in 10.0 mi Variable 6.9 mph - N/A   Clear
1:53 PM 79.0 °F 42.1 °F 27% 30.14 in 10.0 mi Variable 6.9 mph - N/A   Clear
3:53 PM 80.1 °F 41.0 °F 25% 30.10 in 10.0 mi SW 9.2 mph 21.9 mph N/A   Clear
4:53 PM 81.0 °F 44.1 °F 27% 30.09 in 10.0 mi Variable 5.8 mph - N/A   Clear
5:53 PM 80.1 °F 44.1 °F 28% 30.09 in 10.0 mi Variable 6.9 mph - N/A   Clear
6:53 PM 79.0 °F 45.0 °F 30% 30.08 in 10.0 mi Variable 3.5 mph - N/A   Clear
7:53 PM 73.9 °F 46.0 °F 37% 30.09 in 10.0 mi Calm Calm - N/A   Clear
8:53 PM 69.1 °F 48.0 °F 47% 30.09 in 10.0 mi Calm Calm - N/A   Clear
9:53 PM 64.9 °F 48.9 °F 56% 30.09 in 10.0 mi Calm Calm - N/A   Clear
10:53 PM 63.0 °F 48.0 °F 58% 30.09 in 10.0 mi Calm Calm - N/A   Clear
11:53 PM 62.1 °F 48.0 °F 60% 30.09 in 10.0 mi Calm Calm - N/A   Clear